Showing default

EXPLORER 40 (INJUN-5), 3338

Orbit data source: Space-Track

EXPLORER 40 (INJUN-5), 3338 is a payload satellite owned by NASA LaRC (US) in LEO that was launched on Thu, 08 Aug 1968 UTC via an SCOUT B launch vehicle from the Air Force Western Test Range (AFWTR). Payload-class satellites include a variety of spacecraft equipped with specific instruments for various scientific and technological missions. These include communications satellites like Starlink; space stations such as the ISS; scientific satellites like the Hubble; Earth observation satellites from companies like Planet Labs, Umbra, and HawkEye 360; GPS; miniature CubeSats for education and research; and military/defense satellites.

Loading next visibility...
Identifier
3338, 1968-066B
Orbit
LEO
Country
Flag of USUS
Related business
Manufacturer
Iowa
Mission
Civil Science
Bus & Motor
INJUN E, Unknown motor
Mass
70 kg wet, 70 kg dry
Launch date (UTC)
1968-08-08 (57 years ago)
Launch vehicle
SCOUT B
Launch site
Air Force Western Test Range (AFWTR)
Object type
Payload
Rocket body
Debris
Shape & HBR
Hex Cyl, 0.4 m
Radar Cross Section
0.609 m², Large (>1 m²)

Expand to show TLE details & history
Last TLE update: 1 day ago

TLE from 1 day ago
0 EXPLORER 40 (INJUN-5)
1 03338U 68066B   25260.08827120  .00000116  00000-0  10739-3 0  9997
2 03338  80.6583 295.7591 1131225 139.7282 229.3414 12.23465036544914
Epoch: 2025-09-17T02:07Z
TLE epoch observation values (Epoch: 2025-09-17T02:07:06.631Z)
Latitude
-0.00011°
Longitude
-92.28779°
Altitude
2,219.156 km
Speed
6.531 km/s
True Right ascension
19h 43m 02s
True Declination
0° 00' 00"
Sunlit
Object was in daylight at epoch
Visualization orbit readout
Latitude
Unknown
Longitude
Unknown
Altitude
Unknown
Speed
Unknown
Apparent Right ascension
Unknown
Apparent Declination
Unknown
Sunlit
N/A
Visualization observer readout
Local Sidereal Time
19:53:40
Azimuth
Unknown
Elevation
Unknown
Doppler factor
Unknown
Orbital elements
Apogee altitude
2,474.558 km
Perigee altitude
675.225 km
Semi-major axis
7,953.029 km
Eccentricity
0.11312
Inclination
80.6583°
RAAN
295.7591°
Arg. of periapsis
139.7282°
True anomaly
220.37592°
Mean anomaly
229.3414°
Eccentric anomaly
224.77626°
Mean motion
3.06016 °/min
Orbital period
117.64 mins
BSTAR
0.00010739
Loading maneuver chart data...
Computing Atmospheric mass density...
Loading historical data...
Loading historical data...
Loading historical data...
Loading historical data...
Loading historical data...
Loading historical data...
Loading historical data...

Documentation

Showing up to 5 results
|